DW9356 Weather Reports


Display with metric or nautical units.
time (UTC)temp
F
wind
direction
speed
MPH
gust
MPH
rain 1hr
in
rain 24hr
in
rain mn
in
humidity
%
barometer
mb
20260902194104 96 219 1.0 5.0 0.00 0.03 0.00 57 1012.1
20260902193600 96 132 1.0 9.0 0.00 0.03 0.00 57 1012.2
20260902193034 96 191 1.0 9.0 0.00 0.03 0.00 57 1012.3
20260902192530 96 209 1.0 5.0 0.00 0.03 0.00 61 1012.3
20260902192004 96 191 2.0 7.0 0.00 0.03 0.00 59 1012.4
20260902191503 95 289 2.0 7.0 0.00 0.03 0.00 61 1012.5
20260902190956 95 271 2.0 11.0 0.00 0.03 0.00 61 1012.5
20260902190715 96 83 2.0 11.0 0.00 0.03 0.00 60 1012.6
20260902185926 95 163 1.0 7.0 0.00 0.03 0.00 62 1012.7
20260902185906 95 273 1.0 7.0 0.00 0.03 0.00 63 1012.7
20260902184920 95 178 2.0 9.0 0.00 0.03 0.00 63 1012.9
20260902184353 94 191 2.0 9.0 0.00 0.03 0.00 64 1013.0
20260902183851 94 235 1.0 7.0 0.00 0.03 0.00 66 1013.2
20260902183338 94 174 2.0 7.0 0.00 0.03 0.00 65 1013.2
20260902182842 94 230 1.0 6.0 0.00 0.03 0.00 64 1013.3
20260902182338 95 218 1.0 6.0 0.00 0.03 0.00 64 1013.4
20260902181835 94 178 1.0 7.0 0.00 0.03 0.00 66 1013.5
20260902181308 94 169 1.0 7.0 0.00 0.03 0.00 66 1013.5
20260902180805 94 290 1.0 7.0 0.00 0.03 0.00 66 1013.7
20260902180239 93 307 1.0 7.0 0.00 0.03 0.00 69 1013.7
20260902175712 93 284 2.0 7.0 0.00 0.03 0.00 67 1013.9
20260902175210 94 262 2.0 7.0 0.00 0.03 0.00 67 1014.0
20260902174641 94 232 2.0 7.0 0.00 0.03 0.00 67 1014.0
20260902174140 94 196 2.0 8.0 0.00 0.03 0.00 68 1014.1
20260902173611 94 180 2.0 8.0 0.00 0.03 0.00 67 1014.3
20260902173110 94 178 2.0 7.0 0.00 0.03 0.00 68 1014.3
20260902173029 93 53 2.0 7.0 0.00 0.03 0.00 69 1014.4
20260902172040 93 170 2.0 7.0 0.00 0.03 0.00 69 1014.5
20260902171515 93 166 2.0 7.0 0.00 0.03 0.00 69 1014.5
20260902171002 92 121 2.0 7.0 0.00 0.03 0.00 70 1014.6
20260902170505 92 142 2.0 7.0 0.00 0.03 0.00 70 1014.7
20260902165938 92 282 2.0 7.0 0.00 0.03 0.00 72 1014.8
20260902165655 91 171 1.0 5.0 0.00 0.03 0.00 75 1014.8
20260902164910 91 167 1.0 5.0 0.00 0.03 0.00 75 1014.8
20260902164408 91 284 1.0 5.0 0.00 0.03 0.00 76 1014.9
20260902163843 90 140 1.0 7.0 0.00 0.03 0.00 77 1014.9
20260902163537 89 252 2.0 8.0 0.00 0.03 0.00 78 1014.9
20260902162747 89 225 2.0 8.0 0.00 0.03 0.00 79 1014.9
20260902162246 89 300 1.0 5.0 0.00 0.03 0.00 81 1015.0
20260902162004 88 128 1.0 10.0 0.00 0.03 0.00 83 1015.0
20260902161215 87 191 1.0 7.0 0.00 0.03 0.00 83 1015.1
20260902160649 87 265 1.0 7.0 0.00 0.03 0.00 85 1015.1
20260902160123 86 178 1.0 7.0 0.00 0.03 0.00 88 1015.0
20260902155556 85 188 1.0 9.0 0.00 0.03 0.00 88 1015.1
20260902155034 84 273 1.0 6.0 0.00 0.03 0.00 88 1015.1
20260902154533 84 91 1.0 4.0 0.00 0.03 0.00 88 1015.1
20260902154027 84 146 1.0 4.0 0.00 0.03 0.00 89 1015.1
20260902153529 84 271 1.0 4.0 0.00 0.03 0.00 89 1015.2
20260902153027 83 317 0.0 2.0 0.00 0.03 0.00 89 1015.2
20260902152526 83 193 0.0 2.0 0.00 0.03 0.00 89 1015.1
20260902152027 83 306 0.0 6.0 0.00 0.03 0.00 90 1015.0
20260902151528 83 280 0.0 6.0 0.00 0.03 0.00 90 1015.1
20260902151016 83 333 0.0 4.0 0.00 0.03 0.00 90 1015.1
20260902150516 83 285 1.0 3.0 0.00 0.03 0.00 91 1015.1
20260902145950 83 243 1.0 3.0 0.00 0.03 0.00 91 1015.2
20260902145446 82 223 1.0 4.0 0.00 0.03 0.00 91 1015.1
20260902144920 82 295 1.0 4.0 0.00 0.03 0.00 92 1015.1
20260902144355 82 265 1.0 4.0 0.00 0.03 0.00 92 1015.1
20260902143829 82 273 1.0 4.0 0.00 0.03 0.00 92 1015.0
20260902143316 82 259 1.0 4.0 0.00 0.03 0.00 92 1015.0
20260902143307 82 289 1.0 4.0 0.00 0.03 0.00 92 1015.0
20260902142520 82 243 1.0 3.0 0.00 0.03 0.00 93 1015.0
20260902141750 81 184 1.0 2.0 0.00 0.03 0.00 93 1015.1
20260902141449 81 279 0.0 3.0 0.00 0.03 0.00 93 1015.0
20260902140658 81 274 0.0 3.0 0.00 0.03 0.00 93 1015.0
20260902140132 81 169 1.0 3.0 0.00 0.03 0.00 94 1015.0
20260902135620 81 262 1.0 4.0 0.00 0.03 0.00 94 1015.0
20260902135118 81 206 1.0 4.0 0.00 0.03 0.00 94 1014.9
20260902134618 81 219 1.0 4.0 0.00 0.03 0.00 94 1014.9
20260902134339 80 137 1.0 4.0 0.00 0.03 0.00 94 1014.9
20260902133833 80 238 1.0 4.0 0.00 0.03 0.00 94 1014.9
20260902133108 80 281 1.0 5.0 0.00 0.03 0.00 94 1014.9
20260902132825 80 164 1.0 5.0 0.00 0.03 0.00 94 1014.9
20260902132035 80 221 1.0 5.0 0.00 0.03 0.00 94 1014.8
20260902131533 80 199 1.0 3.0 0.00 0.03 0.00 94 1014.6
20260902131225 80 211 1.0 3.0 0.00 0.03 0.00 94 1014.6
20260902130504 80 190 1.0 3.0 0.00 0.03 0.00 94 1014.5
20260902125936 80 247 1.0 7.0 0.00 0.03 0.00 94 1014.5
20260902125422 80 191 1.0 3.0 0.00 0.03 0.00 94 1014.4
20260902124925 80 265 1.0 2.0 0.00 0.03 0.00 94 1014.3
20260902124421 80 273 0.0 4.0 0.00 0.03 0.00 94 1014.3
20260902123919 80 277 0.0 4.0 0.00 0.03 0.00 94 1014.2
20260902123352 80 196 1.0 4.0 0.00 0.03 0.00 94 1014.0
20260902122826 80 258 0.0 4.0 0.00 0.03 0.00 94 1013.9
20260902122325 80 256 1.0 6.0 0.00 0.03 0.00 94 1013.8
20260902121759 80 291 1.0 6.0 0.00 0.03 0.00 94 1013.6
20260902121233 80 311 1.0 4.0 0.00 0.03 0.00 93 1013.5
20260902120733 80 210 1.0 4.0 0.00 0.03 0.00 93 1013.4
20260902120229 80 243 1.0 5.0 0.00 0.03 0.00 93 1013.2
20260902115729 80 167 1.0 5.0 0.00 0.03 0.00 93 1013.2
20260902115159 80 169 1.0 6.0 0.00 0.03 0.00 93 1013.1
20260902114658 80 200 1.0 6.0 0.00 0.03 0.00 93 1013.2
20260902114158 80 205 2.0 6.0 0.00 0.03 0.00 93 1013.2
20260902113632 80 128 1.0 6.0 0.00 0.03 0.00 93 1013.2
20260902113335 80 176 1.0 4.0 0.00 0.03 0.00 93 1013.2
20260902112544 80 200 1.0 6.0 0.00 0.03 0.00 93 1013.2
20260902112017 80 190 1.0 6.0 0.00 0.03 0.00 92 1013.2
20260902111453 80 273 1.0 4.0 0.00 0.03 0.00 92 1013.0
20260902110949 80 217 1.0 4.0 0.00 0.03 0.00 92 1013.0
20260902110425 80 60 1.0 6.0 0.00 0.03 0.00 92 1013.0
20260902105901 80 195 1.0 6.0 0.00 0.03 0.00 92 1013.0
20260902105359 80 160 1.0 4.0 0.00 0.03 0.00 92 1013.1
20260902104833 80 211 1.0 4.0 0.00 0.03 0.00 92 1013.1
20260902104306 80 265 1.0 4.0 0.00 0.03 0.00 91 1013.2
20260902104028 80 254 0.0 4.0 0.00 0.03 0.00 91 1013.3
20260902103301 81 244 1.0 4.0 0.00 0.03 0.00 91 1013.3
20260902102957 80 191 1.0 4.0 0.00 0.03 0.00 91 1013.2
20260902102235 81 182 1.0 3.0 0.00 0.03 0.00 91 1013.2
20260902101736 81 190 1.0 6.0 0.00 0.03 0.00 91 1013.2
20260902101237 81 189 1.0 6.0 0.00 0.03 0.00 91 1013.2
20260902100711 81 211 1.0 6.0 0.00 0.03 0.00 90 1013.2
20260902100436 81 196 0.0 4.0 0.00 0.03 0.00 90 1013.2
20260902095648 81 320 0.0 3.0 0.00 0.03 0.00 90 1013.2
20260902095125 81 230 0.0 5.0 0.00 0.03 0.00 90 1013.3
20260902094559 81 223 0.0 3.0 0.00 0.03 0.00 90 1013.2
20260902094303 81 250 1.0 4.0 0.00 0.03 0.00 89 1013.1
20260902093536 81 172 1.0 5.0 0.00 0.03 0.00 89 1013.1
20260902093012 81 226 1.0 5.0 0.00 0.03 0.00 89 1013.1
20260902092501 81 181 1.0 5.0 0.00 0.03 0.00 89 1013.1
20260902092000 81 169 1.0 4.0 0.00 0.03 0.00 89 1013.1
20260902091434 81 325 1.0 6.0 0.00 0.03 0.00 89 1013.1
20260902090932 81 269 1.0 6.0 0.00 0.03 0.00 89 1013.1
20260902090430 81 298 1.0 5.0 0.00 0.03 0.00 89 1013.1
20260902085933 81 208 1.0 5.0 0.00 0.03 0.00 89 1013.0
20260902085409 81 149 1.0 7.0 0.00 0.03 0.00 88 1013.0
20260902084844 81 194 0.0 7.0 0.00 0.03 0.00 88 1013.0
20260902084323 81 302 0.0 4.0 0.00 0.03 0.00 88 1013.1
20260902083823 81 165 0.0 3.0 0.00 0.03 0.00 88 1013.1
20260902083321 81 234 1.0 3.0 0.00 0.03 0.00 87 1013.0
20260902082822 81 175 1.0 5.0 0.00 0.03 0.00 87 1013.0
20260902082302 81 261 1.0 5.0 0.00 0.03 0.00 87 1013.0
20260902081804 81 231 1.0 4.0 0.00 0.03 0.00 87 1013.0
20260902081246 81 222 1.0 5.0 0.00 0.03 0.00 86 1013.0
20260902080746 81 229 1.0 5.0 0.00 0.03 0.00 86 1013.0
20260902080229 81 217 1.0 4.0 0.00 0.03 0.00 86 1013.1
20260902075731 81 281 1.0 4.0 0.00 0.03 0.00 86 1013.1
20260902075208 81 272 1.0 3.0 0.00 0.03 0.00 85 1013.1
20260902074648 80 153 1.0 3.0 0.00 0.03 0.00 85 1013.1
20260902074149 80 211 0.0 3.0 0.00 0.03 0.00 85 1013.1
20260902073650 80 209 1.0 4.0 0.00 0.03 0.00 85 1013.1
20260902073148 80 262 0.0 4.0 0.00 0.03 0.00 85 1013.1
20260902072627 80 178 0.0 2.0 0.00 0.03 0.00 85 1013.1
20260902072355 80 167 0.0 2.0 0.00 0.03 0.00 86 1013.2
20260902071610 80 166 0.0 2.0 0.00 0.03 0.00 86 1013.3
20260902071601 80 243 0.0 2.0 0.00 0.03 0.00 86 1013.3
20260902070608 80 246 0.0 2.0 0.00 0.03 0.00 86 1013.4
20260902070109 80 244 0.0 2.0 0.00 0.03 0.00 87 1013.3
20260902070044 80 215 0.0 2.0 0.00 0.03 0.00 87 1013.3
20260902065731 80 217 0.0 2.0 0.00 0.03 0.00 87 1013.3
20260902064517 80 218 0.0 2.0 0.00 0.03 0.00 87 1013.3
20260902064015 80 209 0.0 1.0 0.00 0.03 0.00 87 1013.4
20260902063501 80 209 0.0 1.0 0.00 0.03 0.00 87 1013.4
20260902062956 80 209 0.0 1.0 0.00 0.03 0.00 87 1013.3
20260902062723 80 209 0.0 1.0 0.00 0.03 0.00 87 1013.3
20260902061932 80 209 0.0 2.0 0.00 0.03 0.00 87 1013.3
20260902061432 80 210 0.0 2.0 0.00 0.03 0.00 87 1013.2
20260902060915 80 211 0.0 2.0 0.00 0.03 0.00 87 1013.1
20260902060634 80 211 0.0 2.0 0.00 0.03 0.00 87 1013.0
20260902055900 80 211 0.0 2.0 0.00 0.03 0.00 87 1013.0
20260902055358 79 179 1.0 2.0 0.00 0.03 0.00 88 1013.1
20260902054859 79 180 1.0 2.0 0.00 0.03 0.00 88 1013.0
20260902054335 79 182 1.0 4.0 0.00 0.03 0.00 88 1013.0
20260902053810 79 251 1.0 4.0 0.00 0.03 0.00 89 1013.1
20260902053311 79 207 1.0 3.0 0.00 0.03 0.00 89 1013.1
20260902052749 79 229 0.0 2.0 0.00 0.03 0.00 89 1013.0
20260902052232 79 274 0.0 2.0 0.00 0.03 0.00 89 1013.0
20260902051734 79 275 0.0 2.0 0.00 0.03 0.00 90 1013.2
20260902051437 79 271 0.0 2.0 0.00 0.03 0.00 90 1013.3
20260902050715 79 271 0.0 3.0 0.00 0.03 0.00 90 1013.4
20260902050150 79 186 0.0 3.0 0.00 0.03 0.00 90 1013.4
20260902045651 78 100 0.0 1.0 0.00 0.03 0.03 91 1013.3
20260902045125 78 99 0.0 1.0 0.00 0.03 0.03 91 1013.2
20260902044558 78 99 0.0 1.0 0.00 0.03 0.03 91 1013.2
20260902044037 78 97 0.0 1.0 0.00 0.03 0.03 91 1013.3
20260902043511 78 97 0.0 1.0 0.00 0.03 0.03 91 1013.3
20260902043005 78 97 0.0 1.0 0.00 0.03 0.03 91 1013.4
20260902042500 78 97 0.0 1.0 0.00 0.03 0.03 91 1013.4
20260902041959 78 96 0.0 1.0 0.00 0.03 0.03 91 1013.4
20260902041456 78 96 0.0 1.0 0.00 0.03 0.03 91 1013.4
20260902040952 78 81 0.0 1.0 0.00 0.03 0.03 91 1013.5
20260902040427 78 80 0.0 1.0 0.00 0.03 0.03 91 1013.6
20260902040408 78 80 0.0 1.0 0.00 0.03 0.03 91 1013.6
20260902035356 78 81 0.0 0.0 0.00 0.03 0.03 91 1013.6
20260902034829 78 80 0.0 0.0 0.00 0.03 0.03 91 1013.5
20260902034303 79 80 0.0 0.0 0.00 0.03 0.03 91 1013.5
20260902033738 79 80 0.0 0.0 0.00 0.03 0.03 91 1013.6
20260902033212 79 80 0.0 0.0 0.00 0.03 0.03 91 1013.7
20260902033158 79 80 0.0 0.0 0.00 0.03 0.03 91 1013.7
20260902032215 79 80 0.0 0.0 0.00 0.03 0.03 91 1013.7
20260902032131 79 80 0.0 1.0 0.00 0.03 0.03 91 1013.7
20260902031145 79 80 0.0 1.0 0.00 0.03 0.03 91 1013.6
20260902030619 79 80 0.0 1.0 0.00 0.03 0.03 91 1013.5
20260902030052 79 80 0.0 0.0 0.00 0.03 0.03 91 1013.4
20260902025549 79 80 0.0 0.0 0.00 0.03 0.03 91 1013.4
20260902025046 79 80 0.0 0.0 0.00 0.03 0.03 91 1013.3
20260902024544 79 80 0.0 0.0 0.00 0.03 0.03 91 1013.2
20260902024032 79 80 0.0 0.0 0.00 0.03 0.03 91 1013.1
20260902023535 79 80 0.0 0.0 0.00 0.03 0.03 91 1013.1
20260902023009 79 81 0.0 0.0 0.00 0.03 0.03 91 1013.0
20260902022443 79 80 0.0 0.0 0.00 0.03 0.03 91 1012.9
20260902021915 79 80 0.0 0.0 0.00 0.03 0.03 91 1012.8
20260902021611 79 80 0.0 0.0 0.00 0.03 0.03 91 1012.6
20260902020823 79 80 0.0 0.0 0.00 0.03 0.03 91 1012.5
20260902020319 79 80 0.0 0.0 0.00 0.03 0.03 91 1012.6
20260902015815 80 80 0.0 0.0 0.00 0.03 0.03 91 1012.5
20260902015534 80 80 0.0 0.0 0.00 0.03 0.03 91 1012.3
20260902014748 80 80 0.0 0.0 0.00 0.03 0.03 91 1012.3
20260902014245 80 80 0.0 0.0 0.00 0.03 0.03 91 1012.2
20260902013743 80 80 0.0 0.0 0.00 0.03 0.03 91 1012.2
20260902013230 80 80 0.0 1.0 0.00 0.03 0.03 91 1012.1
20260902012732 80 80 0.0 1.0 0.00 0.03 0.03 90 1012.2
20260902012220 80 80 0.0 1.0 0.00 0.03 0.03 90 1012.1
20260902011950 80 80 0.0 1.0 0.00 0.03 0.03 90 1012.1
20260902011153 80 80 0.0 1.0 0.00 0.03 0.03 90 1012.1
20260902010650 80 80 0.0 1.0 0.00 0.03 0.03 90 1012.1
20260902010346 80 80 0.0 1.0 0.00 0.03 0.03 90 1012.2
20260902005600 80 80 0.0 1.0 0.00 0.03 0.03 90 1012.1
20260902005033 80 80 0.0 1.0 0.00 0.03 0.03 90 1012.1
20260902004505 81 80 0.0 1.0 0.00 0.03 0.03 90 1012.2
20260902004230 81 80 0.0 1.0 0.00 0.03 0.03 90 1012.3
20260902003437 81 81 0.0 1.0 0.00 0.03 0.03 90 1012.4
20260902002934 81 81 0.0 1.0 0.00 0.03 0.03 90 1012.4
20260902002430 80 81 0.0 1.0 0.00 0.03 0.03 90 1012.4
20260902001900 80 81 0.0 2.0 0.00 0.03 0.03 90 1012.4
20260902001551 80 80 0.0 2.0 0.00 0.03 0.03 91 1012.3
20260902000831 80 80 0.0 1.0 0.00 0.03 0.03 91 1012.2
20260902000329 80 80 0.0 2.0 0.00 0.03 0.03 91 1012.1
20260901235823 80 80 0.0 2.0 0.00 0.03 0.03 91 1012.1
20260901235806 80 81 0.0 3.0 0.00 0.03 0.03 91 1012.2
20260901234753 80 85 0.0 3.0 0.00 0.03 0.03 91 1012.2
20260901234226 80 61 0.0 6.0 0.01 0.03 0.03 91 1012.3
20260901233724 80 63 0.0 6.0 0.03 0.03 0.03 91 1012.4
20260901233220 80 63 1.0 6.0 0.03 0.03 0.03 90 1012.5
20260901232709 80 47 2.0 6.0 0.03 0.03 0.03 89 1012.5
20260901232206 80 348 1.0 5.0 0.03 0.03 0.03 90 1012.6
20260901231707 81 88 1.0 5.0 0.03 0.03 0.03 90 1012.7
20260901231204 81 53 1.0 4.0 0.03 0.03 0.03 90 1012.8
20260901230700 81 77 1.0 4.0 0.03 0.03 0.03 89 1012.8
20260901230157 81 94 1.0 4.0 0.03 0.03 0.03 88 1012.8
20260901225653 81 18 1.0 5.0 0.03 0.03 0.03 87 1012.9
20260901225150 82 53 1.0 5.0 0.03 0.03 0.03 85 1013.0
20260901224908 83 80 3.0 10.0 0.03 0.03 0.03 83 1013.1
20260901224409 84 67 4.0 11.0 0.02 0.02 0.02 79 1013.2
20260901223617 86 80 3.0 10.0 0.00 0.00 0.00 75 1013.2
20260901223105 87 91 3.0 18.0 0.00 0.00 0.00 75 1013.2
20260901222606 88 60 6.0 13.0 0.00 0.00 0.00 74 1013.3
20260901222040 89 91 6.0 19.0 0.00 0.00 0.00 72 1013.3
20260901221533 90 32 4.0 19.0 0.00 0.00 0.00 70 1013.2
20260901221200 90 91 3.0 10.0 0.00 0.00 0.00 64 1012.7
20260901221052 91 76 3.0 10.0 0.00 0.00 0.00 66 1012.9
20260901220002 90 92 2.0 8.0 0.00 0.00 0.00 64 1012.8
20260901215435 90 85 2.0 8.0 0.00 0.00 0.00 64 1012.8
20260901214909 90 28 2.0 6.0 0.00 0.00 0.00 64 1012.8
20260901214342 90 30 2.0 6.0 0.00 0.00 0.00 64 1012.9
20260901213816 90 69 2.0 6.0 0.00 0.00 0.00 65 1012.8
20260901213313 90 27 2.0 5.0 0.00 0.00 0.00 64 1012.8
20260901212810 90 40 1.0 4.0 0.00 0.00 0.00 68 1012.8
20260901212243 89 14 1.0 3.0 0.00 0.00 0.00 69 1012.7
20260901211742 90 32 1.0 4.0 0.00 0.00 0.00 70 1012.8
20260901211241 90 304 2.0 5.0 0.00 0.00 0.00 71 1012.7
20260901210953 89 29 2.0 5.0 0.00 0.00 0.00 71 1012.8
20260901210434 89 311 1.0 4.0 0.00 0.00 0.00 71 1012.8
20260901205639 90 289 1.0 4.0 0.00 0.00 0.00 71 1012.8
20260901205111 89 345 1.0 4.0 0.00 0.00 0.00 71 1012.7
20260901204609 89 309 1.0 4.0 0.00 0.00 0.00 72 1012.7
20260901204105 89 284 1.0 4.0 0.00 0.00 0.00 72 1012.7
20260901203602 89 331 1.0 4.0 0.00 0.00 0.00 73 1012.8
20260901203059 89 268 1.0 7.0 0.00 0.00 0.00 72 1012.9
20260901202556 89 279 1.0 7.0 0.00 0.00 0.00 72 1012.9
20260901202321 89 5 1.0 3.0 0.00 0.00 0.00 72 1013.1
20260901201527 89 299 1.0 3.0 0.00 0.00 0.00 73 1013.3
20260901201024 89 51 0.0 3.0 0.00 0.00 0.00 74 1013.5
20260901200513 89 13 0.0 3.0 0.00 0.00 0.00 74 1013.6
20260901200015 89 14 1.0 5.0 0.00 0.00 0.00 75 1013.8
20260901195511 89 13 1.0 5.0 0.00 0.00 0.00 74 1014.0
20260901195008 89 355 2.0 7.0 0.00 0.00 0.00 74 1014.2